Vienna Schwechat, Austria

4:30 AM CEST on April 26, 2018 (GMT +0200)
Schwechat

Weather History for LOWW - February, 2013

Change the Weather History Date:

Friday, February 1, 2013

  Actual Average Record
Temperature  
Mean Temperature 44 °F -  
Max Temperature 51 °F 40 °F 57 °F (2000)
Min Temperature 38 °F 28 °F 5 °F (1998)
Degree Days  
Heating Degree Days 20    
Moisture  
Dew Point 34 °F    
Average Humidity 65    
Maximum Humidity 87    
Minimum Humidity 44    
Precipitation  
Precipitation 0.00 in - - ()
Sea Level Pressure  
Sea Level Pressure 29.74 in    
Wind  
Wind Speed 15 mph ()    
Max Wind Speed 25 mph    
Max Gust Speed 38 mph    
Visibility 6.2 miles    
Events Rain    
Averages and records for this station are not official NWS values.
T = Trace of Precipitation, MM = Missing Value Source: Averaged Metar Reports

Daily Weather History Graph

Daily Weather History Graph

Search for Another Location

Airport or City:

Astronomy

Feb. 01, 2013 Rise Set
Actual Time 7:21 AM CET 4:53 PM CET
Civil Twilight 6:48 AM CET 5:26 PM CET
Nautical Twilight 6:11 AM CET 6:04 PM CET
Astronomical Twilight 5:34 AM CET 6:40 PM CET
Moon 11:13 PM CET (2/1) 9:15 AM CET (2/1)
Length of Visible Light 10h 38m
Length of Day
9h 31m
Waning Gibbous, 73% of the Moon is Illuminated
Feb 1
Waning Gibbous
Feb 3
Last Quarter
Feb 10
New
Feb 17
First Quarter
Feb 25
Full

Hourly Weather History & Observations

Time (CET) Temp. Windchill Dew Point Humidity Pressure Visibility Wind Dir Wind Speed Gust Speed Precip Events Conditions
12:20 AM 50.0 °F - 32.0 °F 50% 29.86 in 6.2 mi West 17.3 mph - N/A Rain Light Rain Showers
12:50 AM 48.2 °F - 33.8 °F 58% 29.86 in 6.2 mi WNW 18.4 mph 29.9 mph N/A   Mostly Cloudy
1:00 AM 48 °F - 34 °F 48% 29.88 in 31 mi WNW 17.9 mph - - Rain Light Rain Showers
1:20 AM 48.2 °F - 35.6 °F 62% 29.86 in 6.2 mi WNW 16.1 mph 28.8 mph N/A Rain Light Rain Showers
1:50 AM 46.4 °F 39.8 °F 35.6 °F 66% 29.86 in 6.2 mi West 16.1 mph 29.9 mph N/A   Mostly Cloudy
2:20 AM 46.4 °F 39.0 °F 33.8 °F 62% 29.92 in 6.2 mi WNW 19.6 mph - N/A   Mostly Cloudy
2:50 AM 41.0 °F 33.1 °F 35.6 °F 81% 29.92 in 6.2 mi NNW 15.0 mph - N/A   Mostly Cloudy
3:20 AM 41.0 °F 34.3 °F 33.8 °F 76% 29.89 in 6.2 mi NNW 11.5 mph - N/A   Mostly Cloudy
3:50 AM 39.2 °F 33.6 °F 33.8 °F 81% 29.89 in 6.2 mi NNW 8.1 mph - N/A   Mostly Cloudy
4:00 AM 40 °F - 34 °F 70% 29.92 in 31 mi NNW 8.9 mph - -   Partly Cloudy
4:20 AM 39.2 °F 35.0 °F 33.8 °F 81% 29.89 in 6.2 mi NNW 5.8 mph - N/A   Mostly Cloudy
4:50 AM 39.2 °F 35.0 °F 33.8 °F 81% 29.89 in 6.2 mi WNW 5.8 mph - N/A   Mostly Cloudy
5:20 AM 44.6 °F 36.4 °F 35.6 °F 71% 29.86 in 6.2 mi West 20.7 mph - N/A   Mostly Cloudy
5:50 AM 46.4 °F 38.1 °F 33.8 °F 62% 29.86 in 6.2 mi WNW 24.2 mph 36.8 mph N/A   Mostly Cloudy
6:20 AM 46.4 °F 37.9 °F 33.8 °F 62% 29.86 in 6.2 mi WNW 25.3 mph - N/A   Mostly Cloudy
6:50 AM 46.4 °F 38.5 °F 35.6 °F 66% 29.86 in 6.2 mi WNW 21.9 mph - N/A   Mostly Cloudy
7:00 AM 46 °F - 35 °F 55% 29.88 in 31 mi WNW 22.4 mph - -   Partly Cloudy
7:20 AM 46.4 °F 37.9 °F 35.6 °F 66% 29.86 in 6.2 mi WNW 25.3 mph 38.0 mph N/A   Mostly Cloudy
7:50 AM 46.4 °F 38.5 °F 33.8 °F 62% 29.86 in 6.2 mi WNW 21.9 mph - N/A   Mostly Cloudy
8:20 AM 46.4 °F 38.7 °F 33.8 °F 62% 29.86 in 6.2 mi NW 20.7 mph - N/A   Mostly Cloudy
8:50 AM 46.4 °F 39.5 °F 35.6 °F 66% 29.86 in 6.2 mi WNW 17.3 mph - N/A   Mostly Cloudy
9:20 AM 48.2 °F - 33.8 °F 58% 29.83 in 6.2 mi NW 21.9 mph - N/A   Mostly Cloudy
9:50 AM 48.2 °F - 35.6 °F 62% 29.83 in 6.2 mi WNW 20.7 mph - N/A   Mostly Cloudy
10:00 AM 48 °F - 35 °F 50% 29.86 in 31 mi WNW 20.1 mph - -   Scattered Clouds
10:20 AM 50.0 °F - 35.6 °F 58% 29.83 in 6.2 mi WNW 19.6 mph 33.4 mph N/A   Mostly Cloudy
10:50 AM 50.0 °F - 33.8 °F 54% 29.83 in 6.2 mi WNW 20.7 mph - N/A   Mostly Cloudy
11:20 AM 50.0 °F - 33.8 °F 54% 29.83 in 6.2 mi West 19.6 mph - N/A   Scattered Clouds
11:50 AM 50.0 °F - 32.0 °F 50% 29.83 in 6.2 mi West 21.9 mph - N/A   Mostly Cloudy
12:20 PM 48.2 °F - 32.0 °F 54% 29.83 in 6.2 mi West 16.1 mph - N/A   Mostly Cloudy
12:50 PM 48.2 °F - 33.8 °F 58% 29.83 in 6.2 mi West 11.5 mph - N/A   Mostly Cloudy
1:00 PM 49 °F - 34 °F 44% 29.85 in 31 mi West 11.2 mph - -   Scattered Clouds
1:20 PM 48.2 °F - 33.8 °F 58% 29.80 in 6.2 mi WSW 11.5 mph - N/A   Mostly Cloudy
1:50 PM 48.2 °F - 33.8 °F 58% 29.80 in 6.2 mi WSW 13.8 mph - N/A   Mostly Cloudy
2:20 PM 48.2 °F - 33.8 °F 58% 29.77 in 6.2 mi WSW 9.2 mph - N/A   Mostly Cloudy
2:50 PM 48.2 °F - 35.6 °F 62% 29.77 in 6.2 mi SW 10.4 mph - N/A   Mostly Cloudy
3:20 PM 46.4 °F 42.4 °F 33.8 °F 62% 29.74 in 6.2 mi SW 8.1 mph - N/A   Mostly Cloudy
3:50 PM 46.4 °F 41.5 °F 33.8 °F 62% 29.71 in 6.2 mi SSW 10.4 mph - N/A   Mostly Cloudy
4:00 PM 46 °F - 34 °F 51% 29.75 in 31 mi SSW 11.2 mph - -   Overcast
4:20 PM 46.4 °F 39.8 °F 33.8 °F 62% 29.71 in 6.2 mi South 16.1 mph - N/A Rain Light Rain
4:50 PM 44.6 °F 40.7 °F 35.6 °F 71% 29.68 in 6.2 mi ESE 6.9 mph - N/A   Mostly Cloudy
5:20 PM 44.6 °F 42.2 °F 35.6 °F 71% 29.65 in 6.2 mi ESE 4.6 mph - N/A   Overcast
5:50 PM 42.8 °F 39.3 °F 35.6 °F 76% 29.62 in 6.2 mi SE 5.8 mph - N/A   Overcast
6:20 PM 44.6 °F 37.2 °F 33.8 °F 66% 29.62 in 6.2 mi SSE 17.3 mph - N/A   Overcast
6:50 PM 42.8 °F 35.8 °F 33.8 °F 70% 29.59 in 6.2 mi SSE 13.8 mph - N/A   Overcast
7:00 PM 43 °F - 34 °F 60% 29.61 in 22 mi SSE 13.4 mph - -   Partly Cloudy
7:20 PM 42.8 °F 34.5 °F 32.0 °F 66% 29.56 in 6.2 mi SSE 18.4 mph - N/A   Overcast
7:50 PM 41.0 °F 33.1 °F 32.0 °F 70% 29.53 in 6.2 mi SE 15.0 mph - N/A   Mostly Cloudy
8:20 PM 42.8 °F 35.8 °F 32.0 °F 66% 29.50 in 6.2 mi SSE 13.8 mph - N/A   Mostly Cloudy
8:50 PM 41.0 °F 33.1 °F 32.0 °F 70% 29.47 in 6.2 mi SSE 15.0 mph - N/A   Mostly Cloudy
9:20 PM 41.0 °F 33.5 °F 33.8 °F 76% 29.47 in 6.2 mi SSE 13.8 mph - N/A Rain Light Rain
9:50 PM 39.2 °F 32.0 °F 35.6 °F 87% 29.44 in 6.2 mi SE 11.5 mph - N/A Rain Light Rain
10:00 PM 40 °F - 35 °F 75% 29.47 in 6 mi SE 11.2 mph - - Rain Light Rain
10:20 PM 39.2 °F 31.2 °F 33.8 °F 81% 29.42 in 6.2 mi SE 13.8 mph - N/A Rain Light Rain
10:50 PM 39.2 °F 31.2 °F 33.8 °F 81% 29.39 in 6.2 mi SSE 13.8 mph - N/A   Mostly Cloudy
11:20 PM 39.2 °F 32.0 °F 33.8 °F 81% 29.39 in 6.2 mi SSE 11.5 mph - N/A   Mostly Cloudy
11:50 PM 39.2 °F 32.5 °F 33.8 °F 81% 29.36 in 6.2 mi SE 10.4 mph - N/A   Mostly Cloudy